www.pogodaiklimat.ru

Погода и климат >> Архив погоды >> Россия >> Томская область >> Усть-Озерное


АРХИВ ПОГОДЫ в Усть-Озерном

Время (UTC), дата Ветер
(напр.,м/с)
 
Видим.   Явления Облачность Т
(С)
Тd
(С)
f
(%)
Тe
(С)
Тes
(С)
Комфортность P
(гПа)
Po
(гПа)
Тmin
(С)
Tmax
(С)
R
(мм)
R24
(мм)
S
(см)
00 18.05 Ю 2 10 км 10/0
[Ac und]
+4.5 -5.1 50 +2 +3 1016.6 1002.6 +3.2
06 18.05 Ю 5
{13}
10 км 10/3 600 м
[Cu hum Ac und]
+11.4 -5.0 31 +9 +11 1014.6 1001.0
12 18.05 Ю 5-10
{11}
10 км 10/10 600 м
[Cb cap]
+10.7 -1.9 41 +8 +8 1011.5 997.8 +12.1
15 18.05 Ю 4
{10}
10 км слаб. ливневой дождь 10/10 300 м
[Cb cap]
+8.8 +1.7 61 +6 +6 1011.4 997.7
18 18.05 ЮВ 6-11
{11}
10 км {ливн. осадки} 10/10 600 м
[Cb cap]
+9.1 +1.5 59 +6 +6 1008.7 995.0
21 18.05 Ю 4
{11}
10 км 10/10 600 м
[Cb cap]
+9.6 +0.1 52 +7 +7 1007.3 993.7
00 19.05 ЮВ 5
{10}
10 км 9/9 600 м
[Cb cap]
+10.9 -1.8 41 +9 +9 1005.6 992.1 +8.0 0.0
03 19.05 Ю 6-10
{11}
10 км 8/0
[Ci sp]
+15.6 -4.6 25 +14 +17 1002.5 989.2
06 19.05 Ю 7-15
{15}
10 км 10/5 600 м
[Cb cap As op]
+20.4 -5.8 17 +20 +20 999.9 986.9
09 19.05 ЮЗ 5-12
{17}
10 км 10/10 600 м
[Cb cap]
+19.0 +1.2 30 +19 +19 1000.0 986.9
12 19.05 З 2
{12}
10 км 9/8 600 м
[Cb cap Ci fib]
+14.2 +6.1 58 +14 +14 1001.6 988.3 +20.4
15 19.05 ЮЗ 2 10 км {ливн. осадки} 9/9 600 м
[Cb cap]
+9.7 +7.9 89 +8 +8 1003.0 989.5
18 19.05 З 1 10 км 10/10 600 м
[Cb cap]
+8.0 +5.9 87 +7 +7 1004.6 990.9
21 19.05 ЮЗ 1 10 км ясно +3.9 +2.9 93 +2 +2 1005.8 991.9
00 20.05 Ю 1 10 км ясно +6.4 +4.1 85 +5 +7 1006.4 992.6 +2.9 0.9
03 20.05 Ю 3 10 км 6/3 1000 м
[Cu hum Ci fib]
+11.8 +0.8 47 +11 +15 1005.0 991.5
06 20.05 ЮВ 4 10 км 3/0
[Ci fib]
+15.2 -0.3 35 +14 +23 1002.1 988.8
09 20.05 Ю 5-10
{11}
10 км 9/8 600 м
[Cb cap Ci fib]
+17.1 -2.3 26 +17 +17 1000.3 987.1
12 20.05 СЗ 2
{16}
10 км гроза без осадков {ливн. осадки} 9/8 600 м
[Cb calv Ci fib]
+10.1 +7.2 82 +9 +9 1000.5 987.0 +18.3 0.8
15 20.05 ЮЗ 2 10 км {гроза, ливн. осадки} 3/1 1000 м
[Cb calv As trans]
+10.7 -2.2 40 +10 +10 1000.8 987.3
18 20.05 Ю 1 10 км 3/3 600 м
[Sc diur, vesp]
+5.4 -0.7 65 +5 +5 1000.6 986.9
21 20.05 Ю 2 10 км 3/0
[Ac cast]
+3.6 -0.9 72 +1 +1 999.2 985.4
00 21.05 ЮЗ 1 10 км 8/0
[Ac lent Ci fib]
+5.9 -0.5 63 +5 +6 998.3 984.6 +3.3 0.6
03 21.05 ЮЗ 3 10 км 6/3 600 м
[Cu hum As trans Ci fib]
+11.7 +2.0 51 +10 +15 996.9 983.6
06 21.05 З 3 10 км 8/8 600 м
[Cu med, cong Ci]
+13.9 +1.1 42 +13 +15 996.0 982.8
09 21.05 СЗ 4-10
{11}
10 км 8/6 600 м
[Cu med, cong Ci fib]
+14.9 -0.0 36 +14 +16 996.6 983.4
12 21.05 З 3
{11}
10 км 9/4 600 м
[Cu med, cong Ci]
+14.8 -1.9 32 +14 +15 997.3 984.1 +15.7
15 21.05 ЮЗ 1 10 км 8/0
[Ci]
+9.3 -1.3 47 +9 +9 998.1 984.6
18 21.05 СЗ 1 10 км 6/6 600 м
[Sc]
+7.2 +0.6 63 +7 +7 998.3 984.6
21 21.05 З 1 10 км 8/0
[As op]
+3.6 +1.0 83 +2 +2 998.4 984.6
00 22.05 З 2 10 км 8/0
[Ac trans Cc]
+5.5 +2.8 83 +3 +4 999.7 986.0 +2.6
06 22.05 З 2 10 км {ливн. осадки} 9/9 600 м
[Cb cap]
+10.4 +1.7 55 +9 +11 1001.5 988.0
12 22.05 СЗ 2
{10}
10 км 8/4 1000 м
[Cu med, cong Ac trans]
+11.3 -1.5 41 +11 +12 1001.9 988.4 +11.6
15 22.05 штиль 0
{11}
10 км в посл. час ливневой дождь 10/10 600 м
[Cb cap]
+4.9 +3.5 91 +4 +4 1002.5 988.7
00 23.05 СЗ 2 10 км 8/8 600 м
[Sc diur, vesp]
+2.2 -0.2 84 -1 -1 1006.6 992.6 -0.5 2
12 23.05 С 1 10 км 8/8 600 м
[Sc diur, vesp]
+9.8 -2.9 41 +10 +11 1010.9 997.2 +10.8
00 24.05 Ю 2 10 км 9/0
[Cs]
+4.5 -0.9 68 +2 +4 1014.5 1000.5 +0.5
12 24.05 Ю 4 10 км 6/6 1000 м
[Cu hum]
+15.4 -2.8 28 +15 +15 1012.1 998.7 +15.5

 

Местоположение метеостанции Усть-Озерное (Томская область, Россия): широта 58.88 долгота 87.75 высота над уровнем моря 113 м.

В архиве по умолчанию представлена погода в Усть-Озерном за последнюю неделю. Архивные данные за месяц целиком и за предыдущие месяцы, начиная с января 2011 года, Вы можете получить, выбрав интересующий диапазон дат из раскрывающегося списка и нажав кнопку "Ввод!".


*Определитесь, кто Вы:
робот инопланетянин человек

Внимание! Время в таблицах - всемирное. Для получения местного времени необходимо прибавить поправку, которая равна 7 ч.

Смотрите также архив погоды в соседних городах и на ближайших метеорологических станциях:

Погода в Степановке (Томская область, Россия) (65 км)
Погода в Лосиноборске (Красноярский край, Россия) (106 км)
Погода в Александровском Шлюзе (Красноярский край, Россия) (107 км)
Погода в Сыме (Красноярский край, Россия) (167 км)
Погода в Тегульдете (Томская область, Россия) (177 км)
Погода в Батурино (Томская область, Россия) (195 км)
Погода в Назимово (Красноярский край, Россия) (199 км)
Погода в Ярцево (Красноярский край, Россия) (209 км)
Погода в Первомайском (Томская область, Россия) (221 км)
Погода в Енисейске (Красноярский край, Россия) (259 км)

Пояснения к столбцам:

Ветер - указаны скорость ветра в м/с - средняя за 10 мин, порывы в срок и между сроками (в фигурных скобках) и направление, откуда дует ветер: С - северный, СВ - северо-восточный, В - восточный, ЮВ - юго-восточный, Ю - южный, ЮЗ - юго-западный, З - западный, СЗ - северо-западный.
Видимость - горизонтальная дальность видимости в метрах или километрах. При видимости от 1 до 10 км при отсутствии осадков обычно наблюдается дымка, при ухудшении видимости до 1 км и менее - туман. В сухую погоду видимость может ухудшаться дымом, пылью или мглою.
Явления - указаны атмосферные явления, наблюдавшиеся в срок или в последний час перед сроком; фигурными скобками обозначены явления, наблюдавшиеся между сроками (за 1-3 часа до срока); квадратными скобками обозначены град или гололедные отложения с указанием их диаметра в мм.
Облачность - указаны через наклонную черту общая и нижняя облачность в баллах и высота нижней границы облаков в метрах; квадратными скобками обозначены формы облаков: Ci - перистые, Cs - перисто-слоистые, Cc - перисто-кучевые, Ac - высококучевые, As - высокослоистые, Sc - слоисто-кучевые, Ns - слоисто-дождевые, Cu - кучевые, Cb - кучево-дождевые. Подробнее классификацию облаков см. в Атласе облаков (PDF).
T - Температура воздуха - температура, измеренная на высоте 2 м над землей.
Td - Температура точки росы - температура, при понижении до которой содержащийся в воздухе водяной пар достигнет насыщения.
f - Относительная влажность воздуха - влажноcть воздуха, измеренная на высоте 2 м над землей.
Te - Эффективная температура - температура, которую ощущает одетый по сезону человек в тени. Характеристика душности погоды. При расчете учитывается влияние влажности воздуха и скорости ветра на теплоощущения человека.
Tes - Эффективная температура на солнце - температура, которую ощущает человек, с поправкой на солнечный нагрев. Характеристика знойности погоды. Зависит от высоты солнца над горизонтом, облачности и скорости ветра. Ночью, в пасмурную погоду, а также при ветре 12 м/с и более поправка равна нулю.
P - Атмосферное давление - приведенное к уровню моря атмосферное давление.
Po - Атмосферное давление - измеренное на уровне метеостанции атмосферное давление.
Tmin - Минимальная температура - минимум температуры воздуха на высоте 2 м над землей.
Tmax - Максимальная температура - максимум температуры воздуха на высоте 2 м над землей.
R - Количество осадков - Количество выпавших осадков за период времени, мм. При наведении курсора мыши на число - период времени, за который выпало указанное количество осадков.
R24 - Количество осадков - Количество выпавших осадков за 24 часа, мм.
S - Снежный покров - Высота снежного покрова, см. При наведении курсора мыши на число - состояние снежного покрова и степень покрытия местности в баллах.